Regional Weather Roundup
Issued by NWS

Home | Current Version | Previous Version | Text Only | Print | Product List | Glossary Off
Versions: 1 2 3 4 5 6 7 8 9 10 11 12 13 14 15 16 17 18 19 20 21 22 23 24 25 26 27 28 29 30 31 32 33 34 35 36 37 38 39 40 41 42 43 44 45 46 47 48 49 50

000
ASUS43 KIND 041809
RWRIN

WEATHER ROUNDUP FOR INDIANA
NATIONAL WEATHER SERVICE INDIANAPOLIS IN
200 PM EDT TUE AUG 04 2015

NOTE: "FAIR" INDICATES FEW OR NO CLOUDS BELOW 12,000 FEET WITH NO
SIGNIFICANT WEATHER AND/OR OBSTRUCTIONS TO VISIBILITY.

* - STATION DOES NOT REPORT WEATHER SUCH AS PRECIPITATION OR FOG.

+ - STATION NOT QUALITY CONTROLLED BY THE NATIONAL WEATHER SERVICE.
    USE DATA WITH CAUTION...ESPECIALLY DEWPOINT AND RELATIVE
    HUMIDITY OBSERVATIONS.

INZ001>003-010>013-019-020-041900-
NORTHWEST INDIANA

CITY           SKY/WX    TMP DP  RH WIND       PRES   REMARKS
GARY /AIRPORT/ PTSUNNY   81  54  39 SW9       29.97F
KNOX *+        MOSUNNY   77  54  44 W8        29.97F
LA PORTE +     MOSUNNY   79  53  40 NW7       29.99S
6HR MIN TEMP:  63; 6HR MAX TEMP:  80;

MICHIGAN CITY+ MOSUNNY   77  48  36 N7        29.98F
MONTICELLO +   MOSUNNY   78  56  46 W10       29.98F
6HR MIN TEMP:  60; 6HR MAX TEMP:  79;

RENSSELAER +   PTSUNNY   79  54  41 W5        29.99S
VALPARAISO     MOSUNNY   78  54  43 W8        29.98F
6HR MIN TEMP:  63; 6HR MAX TEMP:  79;


$$

LMZ046-743>745-041900-
SOUTHERN LAKE MICHIGAN

STATION/POSITION TIME  TEMP    WIND        PRES    WAVE
                       AIR SEA DIR/SP/G            HT
                 (UTC) (F)     (DEG/KT/KT) (MB)    (FT)
BURNS HARBOR     1700   75     330/  5/  6 1015.6S
MICHIGAN CITY    1700   73     250/  5/  5   N/A
5NW MICH CITY    1800   74 75  280/  2/  4   N/A     1

$$

INZ004-005-014>016-021>024-041900-
NORTH CENTRAL INDIANA

CITY           SKY/WX    TMP DP  RH WIND       PRES   REMARKS
ELKHART        MOSUNNY   77  50  38 NW8G18    29.98S
GOSHEN         MOSUNNY   77  58  51 W10       29.97S
6HR MIN TEMP:  60; 6HR MAX TEMP:  78;

LOGANSPORT +   MOSUNNY   77  52  41 W9        29.99F
PERU/GRISSOM   MOSUNNY   78  59  50 W12       29.98S
6HR MIN TEMP:  62; 6HR MAX TEMP:  79;

ROCHESTER +    MOSUNNY   79  55  44 W9        29.99S
SOUTH BEND     SUNNY     80  51  36 NW13      29.98S
6HR MIN TEMP:  61; 6HR MAX TEMP:  81;

WARSAW +       MOSUNNY   79  55  44 W9        29.98S

$$

INZ006>009-017-018-025>027-041900-
NORTHEAST INDIANA

CITY           SKY/WX    TMP DP  RH WIND       PRES   REMARKS
ANGOLA *+      MOSUNNY   79  57  47 NW10      29.97S
AUBURN +       MOSUNNY   79  52  38 W7G16     29.98S
FORT WAYNE     PTSUNNY   80  58  46 W12       29.98S
6HR MIN TEMP:  63; 6HR MAX TEMP:  80;

HUNTINGTON +   MOSUNNY   79  57  47 W12       29.98S
6HR MIN TEMP:  63; 6HR MAX TEMP:  79;


$$

INZ028-029-035-036-043>045-051>053-041900-
WEST CENTRAL INDIANA

CITY           SKY/WX    TMP DP  RH WIND       PRES   REMARKS
CRAWFORDSVL +  PTSUNNY   76  53  45 W7          N/A
6HR MIN TEMP:  58; 6HR MAX TEMP:  77;

GREENCASTLE +  CLOUDY    79  54  41 CALM      30.02R
LAFAYETTE      MOSUNNY   79  58  48 VRB7      29.99F
6HR MIN TEMP:  59; 6HR MAX TEMP:  79;

TERRE HAUTE    CLOUDY    81  58  45 W5        30.00S
6HR MIN TEMP:  65; 6HR MAX TEMP:  82;


$$

INZ030>032-037>040-046>048-054>057-064-065-041900-
CENTRAL INDIANA

CITY           SKY/WX    TMP DP  RH WIND       PRES   REMARKS
ANDERSON       SUNNY     79  48  34 W6        30.01S
FRANKFORT +    MOSUNNY   79  61  53 W13       30.02S
6HR MIN TEMP:  65; 6HR MAX TEMP:  80;

INDIANAPOLIS   PTSUNNY   81  53  37 VRB6G16   29.99F
6HR MIN TEMP:  65; 6HR MAX TEMP:  82;

-EAGLE CREEK   PTSUNNY   80  56  43 W9        29.99F
6HR MIN TEMP:  66; 6HR MAX TEMP:  80;

KOKOMO *+      MOSUNNY   79  57  47 W10G20    29.99F
6HR MIN TEMP:  63; 6HR MAX TEMP:  79;

MARION +       MOSUNNY   77  57  50 NW9       30.00S
MT COMFORT *+  MOSUNNY   81  43  26 NW9       30.00S
SHELBYVILLE    MOSUNNY   83  58  42 VRB5      29.99S
6HR MIN TEMP:  64; 6HR MAX TEMP:  83;

ZIONSVILLE +   MOSUNNY   78  54  43 W7        30.01S
6HR MIN TEMP:  60; 6HR MAX TEMP:  79;


$$

INZ033-034-041-042-049-050-058-059-041900-
EAST CENTRAL INDIANA

CITY           SKY/WX    TMP DP  RH WIND       PRES   REMARKS
MUNCIE         SUNNY     77  57  50 NW9       29.99F
6HR MIN TEMP:  63; 6HR MAX TEMP:  78;


$$

INZ060-061-067>069-081>083-085>088-041900-
SOUTHWEST INDIANA

CITY           SKY/WX    TMP DP  RH WIND       PRES   REMARKS
EVANSVILLE     MOSUNNY   89  69  51 VRB7      29.98F
6HR MIN TEMP:  73; 6HR MAX TEMP:  89;

HUNTINGBURG *+ MOSUNNY   84  70  61 N5        30.00F
6HR MIN TEMP:  72; 6HR MAX TEMP:  84; 6HR PCP:  0.02;

WASHINGTON +   PTSUNNY   82  63  52 CALM      29.99F
6HR MIN TEMP:  70; 6HR MAX TEMP:  82;


$$

INZ062-063-066-070>080-084-089>092-041900-
SOUTH CENTRAL AND SOUTHEAST INDIANA

CITY           SKY/WX    TMP DP  RH WIND       PRES   REMARKS
BLOOMINGTON    CLOUDY    81  63  54 VRB5      30.01S
6HR MIN TEMP:  65; 6HR MAX TEMP:  82;

MADISON *+     PTSUNNY   81  63  54 SW7       30.03S
NORTH VERNON + MOSUNNY   82  59  44 W8        30.00F
SEYMOUR +      PTSUNNY   86  64  48 CALM      30.00S

$$



USA.gov is the U.S. government's official web portal to all federal, state and local government web resources and services.